Location: Lewisville
(33.0462°N, 96.9942°W)
Time: 08:53:56
(UTC-05:00)

ISS - Pass Details

Date: 18 September 2021
Orbit: 417 x 423 km, 51.6° (Epoch: 22 October)

Event Time Altitude Azimuth Distance (km) Brightness Sun altitude
Rises 19:52:08 0° 237° (WSW) 2,346 1.0 -5.5°
Reaches altitude 10° 19:54:16 10° 244° (WSW) 1,486 0.1 -6.0°
Maximum altitude 19:57:29 46° 319° (NW) 567 -2.7 -6.7°
Drops below altitude 10° 20:00:44 10° 34° (NE) 1,496 -1.2 -7.3°
Sets 20:02:57 0° 41° (NE) 2,384 -0.3 -7.8°
